Temperature
16 16 16 16 16 16 16 16 16 17 17 16 16 15 15 15 15 15 15 15 15 15 15 15 15 15 14 14 14 14 14 14 14 14 14 14 14 13
16 16 16 16 16 16 16 16 16 16 16 16 15 15 15 15 15 14 14 15 15 15 15 15 14 14 14 14 14 14 14 14 13 13 13 13 13 13
16 16 16 16 16 16 16 16 16 16 16 16 15 15 15 14 14 14 14 14 14 14 14 14 14 14 14 14 14 14 14 13 13 13 13 13 13 13
15 15 15 15 15 15 15 15 15 15 15 15 15 15 14 14 14 14 14 14 14 14 14 14 14 14 13 13 13 13 13 13 13 13 13 13 13 12
15 15 15 15 15 15 15 15 15 15 15 15 15 14 14 14 14 14 13 14 13 13 13 13 13 13 13 13 13 13 13 13 13 12 12 12 12 12
15 15 15 15 15 15 15 15 15 15 14 14 14 14 14 14 13 13 13 13 13 13 13 13 13 13 13 13 13 12 12 12 12 12 12 12 12 12
15 15 14 15 15 15 14 14 14 14 14 14 14 14 14 13 13 13 13 13 13 13 13 12 12 12 12 12 12 12 12 12 12 12 11 11 11 11
15 14 15 14 15 15 15 14 14 14 14 14 14 14 13 13 13 13 13 13 13 13 13 12 12 12 12 12 12 12 12 12 11 11 11 11 11 11
14 14 14 14 14 14 14 14 14 14 14 13 13 13 13 13 13 13 13 13 13 12 12 12 12 12 12 12 12 12 12 12 11 11 11 11 11 11
14 14 14 14 14 14 14 14 13 13 13 13 13 13 13 13 12 12 12 12 12 12 12 12 12 12 12 12 12 12 11 11 11 11 11 11 10 10
14 14 14 14 14 14 13 13 13 13 13 13 13 13 13 13 12 12 12 12 12 12 12 12 12 12 12 11 11 11 11 11 11 11 11 10 10 10
14 14 14 14 13 14 13 13 13 13 13 12 13 13 12 12 12 12 12 12 12 12 12 12 12 12 12 11 11 11 11 11 11 10 10 10 10 9
14 14 13 14 13 13 13 13 13 12 12 12 12 12 12 12 12 12 12 12 12 12 12 12 12 12 12 11 11 11 11 11 10 10 10 10 10 9
14 13 13 13 13 13 13 13 13 12 12 12 12 12 12 12 12 11 11 11 11 11 11 11 11 11 11 11 11 11 11 10 10 10 10 10 10 9
13 13 13 13 13 13 12 12 12 12 12 12 12 12 12 12 11 11 11 11 11 11 11 11 11 11 11 11 11 11 11 10 10 10 10 10 10 9
13 13 13 13 13 12 12 12 12 12 12 12 12 12 12 11 11 11 11 11 11 11 11 11 11 11 11 11 11 11 11 10 10 10 10 10 9 9
13 13 12 12 12 12 12 12 11 11 11 11 11 11 11 11 11 11 11 11 11 11 11 11 11 10 10 10 10 11 11 10 10 10 10 10 9 9
13 12 12 12 12 12 12 12 11 11 11 11 11 11 11 11 11 10 10 10 10 11 11 11 10 10 10 10 10 10 10 10 10 10 10 9 9 9
12 12 12 12 12 12 12 11 11 11 11 11 11 11 10 10 10 10 10 10 10 10 10 10 10 10 10 10 10 10 10 10 10 10 10 9 9 9
12 12 12 12 12 11 11 11 11 11 11 10 10 10 10 10 10 10 10 10 10 10 10 10 10 10 10 10 10 10 10 10 10 10 10 9 9 9
12 12 12 11 11 11 11 11 10 10 10 10 10 10 10 10 10 10 10 10 10 10 10 10 10 10 10 10 10 10 10 10 9 9 9 9 9 9
12 12 11 11 11 11 10 10 10 10 10 10 10 10 10 10 10 10 10 10 10 10 10 10 10 9 9 9 10 10 10 9 9 9 9 9 9 9
11 11 11 11 10 10 10 10 10 10 10 10 9 9 9 9 9 9 9 9 9 9 9 9 9 9 9 9 9 9 9 9 9 9 9 9 8 8
Wind_Speed
2 2 2 2 2 3 3 4 4 5 3 3 3 2 2 1 1 2 1 4 4 3 2 2 1 1 1 2 2 2 2 3 4 5 5 4 5 6
1 1 2 2 2 3 3 3 4 5 4 2 2 1 1 2 2 2 2 5 4 4 3 2 2 2 2 3 3 3 3 3 4 4 5 5 6 6
2 2 2 3 3 3 3 3 3 3 4 3 2 1 2 2 1 2 2 2 3 5 4 3 3 3 3 3 3 3 3 4 5 5 6 6 6 6
2 2 2 2 2 3 3 3 3 4 4 4 2 2 2 2 2 2 2 1 1 5 5 4 4 4 4 4 4 4 4 5 5 5 6 6 6 6
3 3 3 3 3 2 3 4 4 4 4 4 3 2 2 2 2 2 2 1 1 4 6 5 5 5 5 5 5 5 5 6 6 6 6 6 6 6
3 3 3 3 3 3 3 3 3 3 3 4 4 3 3 3 3 3 3 2 2 2 3 4 6 6 6 6 6 6 6 6 6 7 7 7 7 7
4 3 3 2 2 3 3 2 3 3 4 4 4 4 3 3 4 3 3 3 3 3 2 3 4 3 5 7 7 7 7 7 6 7 7 8 7 7
4 4 4 3 3 3 2 3 3 4 4 4 5 5 4 4 3 3 3 3 3 3 3 2 2 2 2 4 7 8 8 7 7 7 7 7 8 8
4 4 4 3 4 4 4 5 5 4 4 5 6 5 5 5 5 5 4 5 3 2 3 3 3 3 3 4 10 10 9 9 8 8 8 8 8 9
5 5 5 4 4 4 5 5 5 5 5 6 5 6 4 3 5 6 5 5 5 5 5 4 4 4 3 4 11 11 11 10 10 9 9 9 9 9
6 6 6 6 3 3 5 6 5 5 5 4 4 4 3 4 5 5 6 6 5 5 5 5 4 4 4 4 8 13 13 12 11 11 10 10 10 10
5 5 6 5 4 5 6 6 6 6 5 4 5 6 7 7 9 8 7 7 6 5 5 5 5 5 4 4 5 8 10 12 13 13 12 11 10 9
5 5 4 6 7 8 8 7 6 5 6 6 5 6 6 6 7 8 7 7 7 6 4 5 6 6 5 4 5 6 7 7 9 10 13 14 13 10
6 6 4 5 8 9 8 5 5 6 6 6 6 6 5 6 6 6 7 7 7 7 5 6 5 6 6 5 5 5 6 6 6 6 8 12 14 13
6 4 4 6 7 7 8 8 7 6 6 7 7 6 6 5 5 5 6 7 7 8 8 8 7 6 7 7 6 6 6 6 7 7 7 7 8 8
6 5 7 8 8 6 6 7 7 6 6 7 7 6 5 5 6 6 6 6 6 6 8 10 9 8 8 8 7 7 6 6 7 7 7 7 8 9
4 5 5 4 5 5 5 5 6 6 6 7 6 6 6 6 6 5 5 6 7 7 7 7 8 8 8 7 7 7 7 6 6 7 7 7 7 8
5 6 6 6 6 5 5 5 5 5 6 6 6 6 6 6 6 6 6 7 8 7 7 6 6 6 6 7 8 9 8 7 6 7 7 8 8 7
6 6 6 6 6 6 6 6 6 5 5 6 6 6 6 6 6 6 6 7 7 7 7 6 6 7 9 9 8 9 9 7 7 8 8 8 8 7
7 7 6 6 6 6 6 6 6 6 6 6 6 6 6 7 7 7 7 8 7 7 7 6 7 8 9 8 6 6 10 9 8 9 8 8 6 4
7 7 7 7 6 6 6 6 6 6 6 6 6 7 7 7 7 8 8 8 9 8 8 8 7 8 7 6 7 6 6 8 7 7 8 8 8 8
7 7 7 7 6 6 6 6 7 7 7 7 7 6 7 7 8 8 8 8 8 8 9 7 6 7 8 9 9 8 7 6 7 8 8 8 8 8
7 7 7 7 7 6 6 7 8 7 6 7 7 7 7 8 8 8 8 8 8 8 8 7 6 6 8 9 9 8 8 8 7 7 8 9 9 8
Wind_Direction
252 234 267 281 271 271 268 264 270 274 266 236 235 216 225 225 165 206 195 136 159 168 170 172 180 184 174 174 173 179 185 191 192 191 192 194 194 194
285 300 287 285 284 270 276 275 267 272 277 269 247 245 235 221 165 199 178 137 147 152 154 168 173 172 164 167 167 166 167 169 168 169 167 169 166 163
271 264 273 294 291 285 278 273 267 259 258 271 252 215 217 245 188 209 200 194 143 146 158 172 176 172 171 169 163 160 159 156 146 144 144 144 142 143
267 275 277 275 282 286 286 276 268 260 251 257 246 219 211 212 196 221 218 197 143 139 155 172 178 177 175 173 172 168 160 151 147 150 151 149 149 151
254 254 264 273 274 288 286 276 263 249 241 239 237 219 216 204 202 209 205 225 207 154 160 166 169 174 176 177 176 176 170 161 157 156 153 152 152 151
253 255 260 264 263 271 267 270 271 259 240 234 232 220 215 202 212 216 204 198 238 204 159 165 163 168 172 175 173 171 168 164 162 160 158 156 155 153
254 254 258 269 304 289 286 283 270 261 246 236 233 232 223 210 218 222 223 210 209 228 206 194 180 182 170 173 172 165 164 165 167 168 166 166 163 159
254 251 240 219 212 225 281 310 303 268 267 261 247 240 234 230 226 230 227 229 230 206 223 225 206 200 180 163 152 162 170 172 174 174 170 169 169 169
254 253 252 232 217 225 215 222 242 256 265 266 267 262 244 227 228 232 235 248 253 220 215 235 218 216 202 154 152 168 176 181 182 182 181 179 178 177
249 249 251 253 241 242 240 238 240 234 234 245 258 265 265 249 231 238 234 233 237 223 214 240 224 220 208 177 163 174 180 184 188 189 188 187 186 185
247 245 245 244 222 241 242 241 246 246 231 231 255 262 272 254 243 236 229 228 233 222 209 234 232 222 219 204 180 180 185 189 193 194 195 195 195 194
242 237 231 237 214 218 237 242 244 248 252 240 227 228 231 225 222 231 236 237 239 238 210 220 224 219 228 217 200 188 192 194 197 198 198 200 206 210
252 248 234 188 210 222 239 242 247 255 249 245 239 233 229 227 222 225 238 247 248 246 219 214 231 226 233 223 210 204 201 197 196 201 203 204 209 219
258 259 248 195 216 226 234 239 239 245 246 246 245 242 240 236 231 230 234 246 261 262 249 237 242 236 235 229 227 213 208 208 206 208 206 200 207 217
261 269 256 221 223 228 224 224 227 237 241 245 246 244 244 243 239 232 230 235 243 246 235 232 242 244 242 244 235 219 213 213 210 212 208 206 206 208
259 245 221 220 231 242 226 221 235 240 243 249 253 252 248 239 237 237 234 228 233 234 228 227 230 238 243 245 240 229 219 216 212 216 213 213 211 214
260 255 251 241 235 238 239 237 239 236 240 247 251 253 251 247 246 241 239 239 240 240 232 221 218 225 238 247 241 234 227 225 219 211 215 222 218 216
241 246 248 248 248 247 248 247 244 247 249 246 245 248 249 249 248 245 242 242 244 244 239 226 214 215 227 236 240 239 232 227 221 212 221 226 226 220
232 246 250 252 254 254 253 255 254 251 250 248 246 248 250 251 250 248 244 245 248 248 245 234 224 225 233 239 228 222 233 231 224 219 224 229 233 226
241 249 253 252 252 254 257 259 261 257 247 246 247 249 249 250 251 250 246 245 246 246 243 237 231 232 237 247 247 229 219 231 231 228 226 229 234 220
247 250 254 257 257 257 257 258 259 256 254 253 253 253 253 253 254 253 251 243 245 245 241 237 230 230 243 249 249 241 223 215 231 237 235 234 231 229
249 247 249 254 257 257 253 250 253 252 250 250 255 257 256 257 258 259 259 255 249 250 249 247 228 223 232 239 245 245 237 223 220 226 238 244 240 238
252 250 249 248 249 251 253 253 255 256 254 255 256 256 258 258 258 257 255 252 252 254 254 250 241 233 235 237 243 247 239 232 229 224 231 224 229 240
Height
1539 1539 1539 1540 1540 1540 1540 1540 1540 1539 1538 1538 1538 1537 1537 1536 1536 1535 1535 1534 1533 1533 1532 1532 1532 1531 1531 1531 1531 1530 1530 1531 1531 1531 1532 1532 1533 1534
1537 1537 1537 1538 1537 1537 1537 1537 1537 1537 1536 1536 1535 1535 1534 1535 1533 1533 1532 1532 1531 1531 1530 1530 1530 1529 1529 1528 1528 1528 1528 1529 1529 1529 1530 1530 1531 1531
1536 1536 1535 1535 1535 1535 1535 1534 1534 1534 1533 1533 1533 1532 1531 1531 1531 1531 1531 1530 1529 1529 1528 1528 1527 1527 1526 1526 1526 1526 1526 1526 1526 1527 1528 1528 1529 1529
1534 1533 1533 1533 1533 1533 1532 1532 1531 1531 1531 1530 1530 1530 1529 1529 1528 1528 1529 1529 1528 1527 1526 1526 1525 1525 1524 1524 1524 1524 1524 1524 1524 1525 1525 1526 1526 1527
1532 1531 1531 1531 1530 1530 1530 1529 1529 1528 1528 1528 1527 1527 1527 1527 1526 1526 1526 1526 1526 1525 1524 1523 1523 1523 1522 1522 1522 1522 1522 1522 1523 1523 1523 1524 1524 1525
1529 1529 1529 1529 1528 1528 1527 1526 1526 1525 1525 1525 1525 1525 1524 1524 1524 1525 1524 1524 1524 1524 1522 1521 1521 1520 1520 1520 1520 1520 1520 1520 1520 1521 1521 1521 1522 1522
1527 1527 1526 1526 1525 1525 1525 1524 1524 1523 1523 1523 1522 1522 1522 1522 1522 1522 1523 1522 1521 1522 1521 1520 1520 1519 1519 1518 1518 1518 1518 1518 1518 1519 1519 1519 1520 1520
1525 1524 1524 1523 1523 1522 1522 1521 1521 1521 1520 1520 1520 1520 1519 1519 1519 1520 1520 1520 1520 1520 1519 1519 1519 1519 1518 1517 1516 1516 1516 1516 1517 1517 1517 1517 1518 1518
1522 1522 1522 1521 1520 1520 1519 1518 1518 1517 1517 1517 1517 1517 1517 1516 1516 1517 1517 1517 1517 1517 1517 1517 1517 1517 1517 1516 1515 1515 1515 1515 1515 1515 1515 1515 1516 1516
1519 1518 1518 1518 1517 1517 1516 1516 1515 1514 1514 1514 1514 1513 1514 1513 1513 1513 1513 1513 1513 1514 1514 1514 1514 1515 1515 1514 1513 1513 1513 1513 1513 1513 1513 1513 1514 1514
1515 1515 1514 1514 1513 1513 1513 1512 1512 1511 1511 1510 1510 1510 1509 1509 1509 1510 1510 1510 1510 1511 1510 1511 1511 1512 1512 1511 1511 1510 1510 1511 1511 1511 1511 1511 1512 1512
1511 1511 1510 1510 1510 1509 1509 1509 1508 1508 1508 1507 1506 1506 1505 1505 1505 1506 1506 1507 1507 1507 1507 1507 1508 1509 1509 1509 1508 1508 1508 1508 1508 1508 1508 1509 1509 1510
1508 1508 1507 1506 1505 1505 1505 1505 1505 1504 1504 1503 1503 1502 1502 1502 1501 1502 1502 1503 1503 1503 1504 1503 1504 1505 1505 1505 1505 1505 1505 1505 1505 1505 1505 1505 1506 1506
1504 1504 1503 1502 1502 1501 1501 1501 1500 1500 1500 1500 1500 1499 1498 1498 1498 1497 1497 1497 1497 1498 1499 1500 1500 1500 1501 1501 1501 1501 1501 1502 1502 1502 1502 1502 1502 1502
1500 1499 1499 1498 1497 1497 1497 1497 1496 1496 1496 1496 1495 1495 1494 1494 1493 1493 1492 1492 1492 1493 1494 1494 1496 1496 1497 1497 1497 1497 1497 1498 1498 1498 1498 1498 1498 1498
1495 1495 1494 1494 1493 1493 1493 1493 1492 1492 1492 1492 1491 1491 1490 1489 1489 1489 1488 1488 1488 1488 1488 1489 1490 1491 1492 1493 1493 1493 1493 1493 1493 1494 1494 1494 1494 1494
1491 1491 1491 1490 1489 1489 1489 1488 1488 1488 1487 1487 1487 1486 1485 1485 1485 1485 1484 1484 1484 1484 1484 1484 1485 1485 1486 1488 1488 1488 1488 1489 1489 1490 1490 1490 1490 1490
1487 1486 1486 1486 1485 1485 1484 1484 1483 1483 1483 1483 1482 1481 1481 1481 1480 1480 1480 1479 1479 1479 1479 1479 1480 1480 1481 1481 1482 1482 1483 1484 1485 1485 1485 1486 1486 1486
1482 1482 1481 1481 1480 1480 1480 1479 1479 1479 1478 1478 1477 1477 1476 1476 1476 1475 1475 1475 1474 1474 1474 1474 1474 1475 1475 1475 1475 1477 1477 1478 1479 1480 1480 1481 1481 1482
1477 1477 1477 1476 1476 1475 1475 1475 1475 1474 1474 1473 1473 1472 1472 1471 1471 1470 1470 1469 1469 1469 1468 1468 1469 1469 1470 1470 1471 1471 1471 1472 1474 1474 1475 1476 1476 1477
1473 1472 1472 1471 1471 1470 1470 1470 1470 1469 1468 1468 1468 1467 1467 1466 1466 1465 1464 1464 1463 1463 1462 1462 1462 1464 1465 1466 1466 1465 1466 1467 1467 1468 1470 1471 1471 1471
1468 1467 1467 1467 1466 1466 1465 1465 1464 1464 1463 1463 1463 1462 1462 1461 1460 1460 1459 1459 1458 1457 1457 1457 1458 1458 1459 1459 1460 1460 1461 1461 1461 1462 1463 1464 1464 1465
1463 1462 1462 1462 1461 1461 1460 1459 1459 1459 1458 1458 1457 1457 1456 1456 1455 1455 1454 1454 1453 1452 1452 1452 1452 1453 1453 1454 1454 1455 1455 1456 1456 1456 1456 1457 1458 1459